This is the latest recevied weather packets stored in our database for station/object KD4EG. If no packets are shown the sender has not sent any weather packets the latest 10 day(s).
| Time | Temp. | Humidity | Pressure | Rain* | Wind** | Luminosity | Snow |
|---|---|---|---|---|---|---|---|
| 1777830389 | 15° C | 34% | 1020.1 hPa | 0 mm | - | 711 W/m² | - |
| 1777830086 | 15.56° C | 36% | 1020.1 hPa | 0 mm | - | 693 W/m² | - |
| 1777829781 | 15.56° C | 36% | 1020.2 hPa | 0 mm | - | 678 W/m² | - |
| 1777829477 | 14.44° C | 35% | 1020.2 hPa | 0 mm | - | 649 W/m² | - |
| 1777829174 | 14.44° C | 35% | 1020.5 hPa | 0 mm | - | 629 W/m² | - |
| 1777828872 | 15° C | 35% | 1020.6 hPa | 0 mm | - | 639 W/m² | - |
| 1777828569 | 14.44° C | 35% | 1020.7 hPa | 0 mm | - | 663 W/m² | - |
| 1777828266 | 14.44° C | 38% | 1020.7 hPa | 0 mm | - | 695 W/m² | - |
| 1777827963 | 13.33° C | 40% | 1020.9 hPa | 0 mm | - | 694 W/m² | - |
| 1777827659 | 13.89° C | 37% | 1020.8 hPa | 0 mm | - | 704 W/m² | - |
| 1777827356 | 13.89° C | 36% | 1020.9 hPa | 0 mm | - | 700 W/m² | - |
| 1777827052 | 13.89° C | 37% | 1021 hPa | 0 mm | - | 678 W/m² | - |
| 1777826750 | 13.89° C | 38% | 1021.1 hPa | 0 mm | - | 659 W/m² | - |
| 1777826446 | 13.33° C | 38% | 1021.1 hPa | 0 mm | - | 665 W/m² | - |
| 1777826143 | 13.33° C | 38% | 1021.3 hPa | 0 mm | - | 665 W/m² | - |
| 1777825841 | 12.78° C | 38% | 1021.2 hPa | 0 mm | - | 657 W/m² | - |
| 1777825538 | 13.33° C | 39% | 1021.2 hPa | 0 mm | - | 640 W/m² | - |
| 1777825236 | 13.33° C | 38% | 1021.2 hPa | 0 mm | - | 660 W/m² | - |
| 1777824932 | 12.78° C | 39% | 1021.3 hPa | 0 mm | - | 675 W/m² | - |
| 1777824628 | 12.78° C | 42% | 1021.3 hPa | 0 mm | - | 682 W/m² | - |
| 1777824326 | 12.78° C | 41% | 1021.5 hPa | 0 mm | - | 653 W/m² | - |
| 1777824021 | 12.78° C | 40% | 1021.5 hPa | 0 mm | - | 646 W/m² | - |
| 1777823718 | 12.78° C | 41% | 1021.4 hPa | 0 mm | - | 672 W/m² | - |
| 1777823415 | 12.22° C | 40% | 1021.6 hPa | 0 mm | - | 710 W/m² | - |
| 1777823112 | 11.67° C | 42% | 1021.6 hPa | 0 mm | - | 699 W/m² | - |
* Rain latest hour (hover to see other rain measurements)
** Current wind speed in m/s (hover to see current wind gust speed)